User: anonymous   Login
Location: Noordwijk
(52.2400°N, 4.4500°E)
Time: 12:06:27
(UTC+00:00)
Language:

UKube-1 - Orbit

View from above orbital plane
View from above orbital plane
View from above satellite
View from above satellite

Ground track
Ground track

The orbit data is extracted from the following two-line orbital elements,

1 40074U 14037F   22338.13734222  .00002262  00000-0  26466-3 0  9991
2 40074  98.3592 227.5318 0005218  92.9433 267.2387 14.86149509455261
Epoch (UTC): 04 December 2022 03:17:46
Eccentricity: 0.0005218
inclination: 98.3592°
perigee height: 606 km
apogee height: 613 km
right ascension of ascending node: 227.5318°
argument of perigee: 92.9433°
revolutions per day: 14.86149509
mean anomaly at epoch: 267.2387°
orbit number at epoch: 45526

The dashed part of the orbit path shows where the satellite is in the earth's shadow,  

DLR